Torna al catalogo

DELTA 1 DEB

AttivoPO
NORAD 1312·DEBRIS·🇺🇸 United States

Lanciato Jan 22, 1965 da Cape Canaveral Space Force Station

Loading…

Prossimi Passaggi (prossime 24 ore)

TLE

AggiornatoSource: Space-Track

Epoca: Sep 13, 2026, 07:15 UTC

1 01312U 65004C   26256.30274188 -.00000006  00000-0  16811-4 0  9994
2 01312  96.3423 211.4991 1114896 278.2341  69.4025 12.28282895737404

Traccia DELTA 1 DEB in tempo reale con AllMySat

Download on the App Store